This demonstration page uses our WeatherBlox Daily Observations layout. Learn more.

Left ArrowRight Arrow

34.02893, -84.19858

Hourly Observations for June 6, 2022

Temp ( °F °C ) Dew Point ( °F °C ) Humidity (%) Winds ( mph kmh ) Pressure ( in mb ) Visibility ( mi km ) Precip ( " mm )
12:53 am 00:53 Clear 70 21.1 57 13.9 64 64 E 3 6 29.90 1012 10 16 0.00 0.00
1:53 am 01:53 Clear 69 20.6 57 13.9 66 66 Calm 29.88 1012 10 16 0.00 0.00
2:53 am 02:53 Clear 68 20 56 13.3 65 65 E 3 6 29.88 1012 10 16 0.00 0.00
3:53 am 03:53 Clear 67 19.4 54 12.2 63 63 Calm 29.88 1012 10 16 0.00 0.00
4:53 am 04:53 Clear 66 18.9 54 12.2 65 65 VRB 3 6 29.90 1012 10 16 0.00 0.00
5:53 am 05:53 Partly Cloudy 66 18.9 54 12.2 65 65 Calm 29.91 1013 10 16 0.00 0.00
5:59 am 05:59 Mostly Cloudy 66 18.9 54 12.2 65 65 E 3 6 29.94 1014 10 16 0.00 0.00
6:53 am 06:53 Cloudy 67 19.4 56 13.3 68 68 VRB 3 6 29.93 1013 10 16 0.00 0.00
7:53 am 07:53 Cloudy 68 20 58 14.4 70 70 VRB 3 6 29.94 1014 10 16 0.00 0.00
8:53 am 08:53 Cloudy 70 21.1 61 16.1 73 73 VRB 5 7 29.95 1014 10 16 0.00 0.00
9:53 am 09:53 Cloudy 73 22.8 64 17.8 74 74 VRB 3 6 29.96 1015 10 16 0.00 0.00
10:53 am 10:53 Mostly Cloudy 76 24.4 66 18.9 72 72 S 6 9 29.95 1014 10 16 0.00 0.00
11:53 am 11:53 Mostly Cloudy 78 25.6 64 17.8 62 62 SSE 7 11 29.96 1015 10 16 0.00 0.00
11:56 am 11:56 Mostly Cloudy 79 26.1 64 17.8 60 60 VRB 3 6 29.95 1014 10 16 0.00 0.00
12:53 pm 12:53 Mostly Cloudy 83 28.3 65 18.3 55 55 VRB 6 9 29.94 1014 10 16 0.00 0.00
1:53 pm 13:53 Mostly Sunny 84 28.9 64 17.8 51 51 Calm 29.91 1013 10 16 0.00 0.00
2:53 pm 14:53 Mostly Cloudy 81 27.2 64 17.8 57 57 SE 5 7 29.90 1013 10 16 0.00 0.00
3:48 pm 15:48 Mostly Cloudy with Nearby Thunderstorms 81 27 64 18 58 58 VRB 3 6 29.89 1012 10 16 0.00 0.00
3:53 pm 15:53 Mostly Cloudy with Nearby Thunderstorms 80 26.7 63 17.2 56 56 SE 6 9 29.90 1012 10 16 0.00 0.00
4:08 pm 16:08 Cloudy with Thunderstorms 72 22.2 64 17.8 76 76 SW 20 31 29.95 1014 9 14 0.00 0.00
4:14 pm 16:14 Cloudy with Thunderstorms 69 20.6 64 17.8 84 84 WSW 16 26 29.96 1015 7 11 0.00 0.00
4:31 pm 16:31 Cloudy with Strong Thunderstorms 68 20 66 18.9 93 93 SW 9 15 29.95 1014 2 3 0.12 3.05
4:40 pm 16:40 Cloudy with Thunderstorms 68 20 67 19.4 96 96 S 3 6 29.95 1014 2 3 0.15 3.81
4:45 pm 16:45 Cloudy with Thunderstorms 69 20.6 67 19.4 93 93 SE 6 9 29.94 1014 3 5 0.16 4.06
4:53 pm 16:53 Cloudy with Light Rain 69 20.6 67 19.4 93 93 VRB 5 7 29.93 1014 4 6 0.17 4.32
5:53 pm 17:53 Mostly Sunny 75 23.9 68 20 79 79 SE 5 7 29.90 1013 10 16 0.03 0.76
6:53 pm 18:53 Sunny 75 23.9 68 20 79 79 Calm 29.91 1013 10 16 0.00 0.00
7:53 pm 19:53 Sunny 72 22.2 70 21.1 94 94 Calm 29.92 1013 10 16 0.00 0.00
8:53 pm 20:53 Clear 73 22.8 69 20.6 87 87 Calm 29.92 1013 10 16 0.00 0.00
9:53 pm 21:53 Clear 73 22.8 67 19.4 81 81 VRB 5 7 29.92 1013 10 16 0.00 0.00
10:53 pm 22:53 Clear 71 21.7 66 18.9 84 84 VRB 3 6 29.93 1014 10 16 0.00 0.00
11:53 pm 23:53 Clear 70 21.1 65 18.3 84 84 SSE 5 7 29.93 1014 10 16 0.00 0.00

Powered by AerisWeather